Preview of NWS' New Version of Forecast
This preview is not operational and should not be used for support decisions.

Regional Weather Roundup (RWR)

Issued by National Weather Service (NWS)

                            
000
ASUS45 KBOI 251910
RWRID 

IDAHO REGIONAL WEATHER ROUNDUP
NATIONAL WEATHER SERVICE BOISE ID
100 PM MDT TUE JUN 25 2019

NOTE: "FAIR" INDICATES FEW OR NO CLOUDS BELOW 12000 FEET
WITH NO SIGNIFICANT WEATHER AND/OR OBSTRUCTIONS TO VISIBILITY

IDZ012-014-252000-
SOUTHWEST IDAHO

  
CITY           SKY/WX    TMP DP  RH WIND       PRES   REMARKS
BOISE          MOSUNNY   77  39  25 MISG      29.83F                  
CALDWELL       MOSUNNY   78  44  29 VRB3      29.82F                  
MOUNTAIN HOME  PTSUNNY   78  39  24 NW3       29.82F                  
$$

IDZ016-017-252000-
SOUTHCENTRAL IDAHO

  
CITY           SKY/WX    TMP DP  RH WIND       PRES   REMARKS
BURLEY         SUNNY     78  42  27 NW10      29.86F                  
JEROME         MOSUNNY   76  43  30 VRB6      29.88F                  
TWIN FALLS     MOSUNNY   78  43  28 N13       29.87F                  
$$

IDZ019>023-252000-
SOUTHEAST IDAHO

  
CITY           SKY/WX    TMP DP  RH WIND       PRES   REMARKS
IDAHO FALLS    PTSUNNY   74  44  34 W9        29.90S                  
POCATELLO      MOSUNNY   77  40  26 W16       29.90S                  
REXBURG        PTSUNNY   72  41  32 W6        29.90F                  
$$

IDZ006-010-011-018-031-032-252000-
CENTRAL IDAHO MOUNTAINS

  
CITY           SKY/WX    TMP DP  RH WIND       PRES   REMARKS
MCCALL         PTSUNNY   65  39  38 S9        29.89F                  
HAILEY         MOSUNNY   70  45  40 SE9       29.95S                  
STANLEY          N/A     63  38  39 NW6       29.95F                  
SALMON         LGT RAIN  56  49  77 VRB3      29.96F                  
CHALLIS        PTSUNNY   65  42  43 N8        29.92F                  
$$

IDZ002-004-006-007-026-252000-
NORTHERN IDAHO

  
CITY           SKY/WX    TMP DP  RH WIND       PRES   REMARKS
LEWISTON       MOSUNNY   70  45  40 MISG      29.85F                  
LOWELL           N/A     67  47  48 CALM      29.85F                  
COEUR D'ALENE  MOSUNNY   67  37  33 S6        29.88F                  
MULLAN PASS      N/A    N/A N/A N/A MISG      29.96F                  
$$